User: anonymous   Login
Location: Unspecified
(0.0000°N, 0.0000°E)
Time: 10:24:16
(UTC+00:00)
Language:

CANX 3B (BRITE-ASRA) - Orbit

View from above orbital plane
View from above orbital plane
View from above satellite
View from above satellite

Ground track
Ground track

The orbit data is extracted from the following two-line orbital elements,

1 39091U 13009F   14304.76860180  .00000253  00000-0  10492-3 0  5123
2 39091 098.6125 139.0620 0009494 269.4395 090.5702 14.34752775 87902
Epoch (UTC): 31 October 2014 18:26:47
Eccentricity: 0.0009494
inclination: 98.6125°
perigee height: 769 km
apogee height: 782 km
right ascension of ascending node: 139.0620°
argument of perigee: 269.4395°
revolutions per day: 14.34752775
mean anomaly at epoch: 90.5702°
orbit number at epoch: 8790

The dashed part of the orbit path shows where the satellite is in the earth's shadow,  

DLR